Location: Newark
(48.1500°N, 2.9667°W)
Time: 06:29:04
(UTC+00:00)

A-11 Canister half - Pass Details

Date: 24 January 2020
Orbit: 1524 x 1684 km, 47.3° (Epoch: 27 February)

Event Time Altitude Azimuth Distance (km) Brightness Sun altitude
Rises 22:46:21 0° 285° (WNW) 4,739 12.0 -54.9°
Reaches altitude 10° 22:49:24 10° 283° (WNW) 3,773 11.3 -55.3°
Enters shadow 22:51:23 18° 280° (W) 3,164 10.8 -55.5°
Maximum altitude 22:58:52 67° 203° (SSW) 1,720 - -56.3°
Drops below altitude 10° 23:08:40 10° 124° (SE) 3,890 - -57.2°
Sets 23:11:52 0° 122° (ESE) 4,893 - -57.5°
